CW3777 Weather Reports


Display with metric or nautical units.
time (UTC)temp
F
wind
direction
speed
MPH
gust
MPH
rain 1hr
in
rain 24hr
in
rain mn
in
humidity
%
barometer
mb
20180524020659 75 45 2.0 7.0 0.00 0.01 0.01 71 1016.0
20180524020158 74 37 4.0 12.0 0.00 0.01 0.01 72 1016.0
20180524013659 75 53 5.0 10.0 0.00 0.01 0.01 72 1015.7
20180524013158 75 49 5.0 12.0 0.00 0.01 0.01 72 1015.7
20180524010659 74 74 2.0 7.0 0.00 0.01 0.01 74 1015.6
20180524010159 75 61 0.0 5.0 0.00 0.01 0.01 74 1015.6
20180524003659 75 28 3.0 5.0 0.00 0.01 0.01 73 1015.3
20180524003159 76 62 2.0 10.0 0.00 0.01 0.01 73 1015.2
20180524000659 76 37 3.0 9.0 0.00 0.01 0.01 71 1015.3
20180524000159 76 57 3.0 10.0 0.00 0.01 0.01 71 1015.2
20180523233659 78 90 2.0 7.0 0.00 0.01 0.01 69 1014.8
20180523233159 78 71 2.0 10.0 0.00 0.01 0.01 69 1014.7
20180523230659 78 104 4.0 9.0 0.00 0.01 0.01 69 1014.2
20180523230159 78 74 3.0 14.0 0.00 0.01 0.01 68 1014.1
20180523223659 79 57 2.0 10.0 0.00 0.01 0.01 70 1013.7
20180523223159 79 22 3.0 12.0 0.00 0.01 0.01 70 1013.6
20180523220659 80 75 4.0 9.0 0.00 0.01 0.01 68 1013.7
20180523220159 80 62 6.0 12.0 0.00 0.01 0.01 68 1013.7
20180523213659 82 43 3.0 7.0 0.00 0.01 0.01 67 1013.2
20180523213159 81 73 3.0 10.0 0.00 0.01 0.01 66 1013.2
20180523210659 83 37 4.0 9.0 0.00 0.01 0.01 66 1013.1
20180523210158 83 34 3.0 14.0 0.00 0.01 0.01 64 1013.0
20180523203659 84 22 3.0 10.0 0.00 0.01 0.01 63 1012.8
20180523203159 84 55 6.0 12.0 0.00 0.01 0.01 64 1012.8
20180523200659 84 31 6.0 9.0 0.00 0.01 0.01 62 1012.9
20180523200158 84 39 4.0 14.0 0.00 0.01 0.01 62 1013.0
20180523193659 84 34 5.0 12.0 0.00 0.01 0.01 62 1013.2
20180523193159 84 0 5.0 14.0 0.00 0.01 0.01 62 1013.2
20180523190659 84 10 3.0 8.0 0.00 0.01 0.01 66 1013.7
20180523190159 84 14 5.0 10.0 0.00 0.01 0.01 62 1013.7
20180523183659 85 350 1.0 6.0 0.00 0.01 0.01 65 1013.6
20180523183159 85 344 1.0 9.0 0.00 0.01 0.01 62 1013.6
20180523180659 84 336 1.0 3.0 0.00 0.01 0.01 65 1013.6
20180523180159 85 336 1.0 9.0 0.00 0.01 0.01 63 1013.6
20180523173659 85 23 2.0 7.0 0.00 0.01 0.01 64 1013.5
20180523173159 85 30 3.0 6.0 0.00 0.01 0.01 64 1013.5
20180523170659 85 53 2.0 6.0 0.00 0.01 0.01 66 1013.7
20180523170159 84 346 2.0 9.0 0.00 0.01 0.01 68 1013.7
20180523163659 82 343 1.0 5.0 0.00 0.01 0.01 73 1013.9
20180523163159 82 343 2.0 8.0 0.00 0.01 0.01 70 1013.9
20180523160659 83 10 5.0 9.0 0.00 0.01 0.01 69 1014.0
20180523160159 84 320 2.0 9.0 0.00 0.01 0.01 69 1013.9
20180523153659 83 15 2.0 5.0 0.00 0.01 0.01 71 1013.9
20180523153158 83 242 2.0 14.0 0.00 0.01 0.01 72 1013.9
20180523150659 81 314 3.0 8.0 0.00 0.01 0.01 74 1014.0
20180523150159 81 331 1.0 13.0 0.00 0.01 0.01 76 1014.0
20180523143659 81 196 2.0 8.0 0.00 0.01 0.01 74 1014.0
20180523143159 81 291 2.0 13.0 0.00 0.01 0.01 75 1013.9
20180523140659 80 318 3.0 10.0 0.00 0.01 0.01 76 1013.8
20180523140159 80 279 2.0 12.0 0.00 0.01 0.01 77 1013.9
20180523133659 79 246 1.0 6.0 0.00 0.01 0.01 77 1013.5
20180523133159 79 236 4.0 16.0 0.00 0.01 0.01 78 1013.5
20180523130659 78 246 2.0 12.0 0.00 0.01 0.01 79 1013.7
20180523130159 78 203 2.0 15.0 0.00 0.01 0.01 80 1013.6
20180523123659 77 261 3.0 12.0 0.00 0.01 0.01 82 1013.7
20180523123158 76 232 6.0 12.0 0.00 0.01 0.01 81 1013.7
20180523120659 75 242 4.0 8.0 0.00 0.01 0.01 84 1013.8
20180523120159 75 240 3.0 10.0 0.00 0.01 0.01 84 1013.8
20180523113659 74 285 4.0 8.0 0.00 0.01 0.01 86 1013.8
20180523113159 74 228 3.0 9.0 0.00 0.01 0.01 86 1013.8
20180523110659 73 238 0.0 3.0 0.00 0.01 0.01 88 1013.7
20180523110159 73 238 1.0 10.0 0.00 0.01 0.01 88 1013.5
20180523103659 72 235 4.0 7.0 0.00 0.01 0.01 89 1013.1
20180523103159 72 236 3.0 10.0 0.00 0.01 0.01 89 1013.1
20180523100659 73 230 2.0 9.0 0.00 0.01 0.01 88 1012.9
20180523100159 73 241 3.0 18.0 0.00 0.01 0.01 88 1012.7
20180523093659 73 224 4.0 12.0 0.00 0.01 0.01 88 1012.6
20180523093159 73 233 5.0 12.0 0.00 0.01 0.01 88 1012.5
20180523090659 73 232 5.0 15.0 0.00 0.01 0.01 88 1012.5
20180523090159 73 239 7.0 17.0 0.00 0.01 0.01 88 1012.4
20180523083659 73 255 6.0 16.0 0.00 0.01 0.01 88 1012.4
20180523083159 73 241 9.0 16.0 0.00 0.01 0.01 88 1012.4
20180523080659 73 233 7.0 14.0 0.00 0.01 0.01 90 1012.5
20180523080159 73 231 9.0 16.0 0.00 0.01 0.01 90 1012.6
20180523073659 73 238 7.0 12.0 0.00 0.01 0.01 91 1013.0
20180523073159 73 220 4.0 10.0 0.00 0.01 0.01 91 1013.1
20180523070659 72 235 7.0 12.0 0.00 0.01 0.01 92 1013.2
20180523070159 72 241 5.0 13.0 0.00 0.01 0.01 92 1013.2
20180523063659 72 232 5.0 12.0 0.00 0.01 0.01 93 1013.3
20180523063159 72 223 4.0 10.0 0.00 0.01 0.01 94 1013.5
20180523060659 72 245 1.0 3.0 0.01 0.01 0.01 95 1014.1
20180523060159 72 245 0.0 3.0 0.01 0.01 0.01 95 1014.1
20180523053659 73 245 1.0 9.0 0.01 0.01 0.01 93 1014.2
20180523053159 73 234 3.0 12.0 0.01 0.01 0.01 93 1014.3
20180523050700 73 232 3.0 6.0 0.00 0.00 0.00 92 1014.4
20180523050159 73 235 2.0 8.0 0.00 0.00 0.00 92 1014.5
20180523043659 72 198 0.0 0.0 0.00 0.00 0.00 92 1014.4
20180523043159 72 198 0.0 3.0 0.00 0.00 0.00 92 1014.3
20180523040700 71 198 2.0 3.0 0.00 0.00 0.00 90 1014.4
20180523040159 71 201 1.0 5.0 0.00 0.00 0.00 89 1014.4
20180523033659 70 205 2.0 5.0 0.00 0.00 0.00 88 1014.5
20180523033159 70 205 0.0 5.0 0.00 0.00 0.00 88 1014.6
20180523030659 70 341 0.0 0.0 0.00 0.00 0.00 89 1014.7
20180523030159 70 341 2.0 3.0 0.00 0.00 0.00 89 1014.9
20180523023659 70 351 0.0 0.0 0.00 0.00 0.00 88 1015.0
20180523023200 70 351 0.0 2.0 0.00 0.00 0.00 88 1015.1